User: anonymous   Login
Location: Luxembourg
(49.6117°N, 6.1300°E)
Time: 19:26:43
(UTC+02:00)
Language:

BEESAT 2 - Orbit

View from above orbital plane
View from above orbital plane
View from above satellite
View from above satellite

Ground track
Ground track

The orbit data is extracted from the following two-line orbital elements,

1 39136U 13015G   19287.65451512 +.00000800 +00000-0 +49924-4 0  9998
2 39136 064.8705 022.3346 0028298 297.1526 062.6715 15.17069547357675
Epoch (UTC): 14 October 2019 15:42:30
Eccentricity: 0.0028298
inclination: 64.8705°
perigee height: 495 km
apogee height: 534 km
right ascension of ascending node: 22.3346°
argument of perigee: 297.1526°
revolutions per day: 15.17069547
mean anomaly at epoch: 62.6715°
orbit number at epoch: 35767

The dashed part of the orbit path shows where the satellite is in the earth's shadow,  

DLR